SWISSCUBE

Last updated on Mon Sep 21 2026 00:03:14 GMT+0000 (Coordinated Universal Time)

1 35932U 09051B 26263.46894233 .00000573 00000+0 12249-3 0 9990 2 35932 98.3943 172.9788 0005460 280.6833 79.3753 14.62630936903081
UTC large
Height (km)
Speed (km/s)
/
Latitude / Longitude
Inclination (degrees)
Orbital Period (minutes)
Azimuth
Elevation
Range (km)
Doppler Factor

Next 0 passes for location: London (51.5072 / 0.1276)

No passes found over London.
SWISSCUBE